Probability
0 0 0 0 0 0 0 0 0 0 1 4 12 20 22 21 25 29 31 30 27 25 25 23 21 20 23 26 26 24 23 25 27 27 25 24 22 20 17 16 17 18 16 14
0 0 0 0 0 0 0 0 0 0 2 4 10 18 22 24 26 28 30 30 29 27 27 25 23 21 22 24 23 21 21 22 25 24 22 20 19 17 16 16 16 17 16 15
0 0 0 0 0 0 0 0 0 0 1 2 6 14 23 26 26 26 28 30 30 30 30 28 24 21 20 20 20 20 19 19 20 20 18 16 15 14 13 14 14 14 13 14
0 0 0 0 0 0 0 0 0 0 0 1 2 8 20 26 24 23 27 32 32 31 33 31 27 22 19 19 20 20 19 17 17 16 15 14 13 11 10 11 12 11 11 11
0 0 0 0 0 0 0 0 0 0 0 0 0 4 13 21 22 20 25 31 32 32 33 32 28 23 19 18 18 18 17 16 15 14 13 12 11 9 8 8 9 10 10 11
0 0 0 0 0 0 0 0 0 0 0 0 1 3 8 15 17 17 22 29 32 32 31 29 27 23 20 18 17 16 16 16 15 13 12 11 10 8 7 7 9 9 9 9
0 0 0 0 0 0 0 0 0 0 0 0 1 4 9 14 14 17 23 28 31 32 29 25 23 21 19 17 16 16 16 16 15 14 13 11 10 9 8 8 8 7 7 6
0 0 0 0 0 0 0 0 0 0 0 0 1 6 12 16 17 19 24 27 29 29 26 22 21 20 18 16 16 16 16 16 16 15 14 13 11 10 9 8 7 6 4 4
0 0 0 0 0 0 0 0 0 0 0 0 1 5 11 15 19 21 22 25 27 26 23 20 19 19 17 15 16 16 16 15 14 13 13 12 11 9 8 8 6 4 2 1
0 0 0 0 0 0 0 0 0 0 0 0 0 3 8 13 16 18 19 21 23 23 22 21 20 19 18 16 15 15 14 13 10 9 9 9 7 5 4 4 3 2 1 0
0 0 0 0 0 0 0 0 0 0 0 0 0 2 6 10 12 13 15 18 21 22 23 23 21 19 19 17 14 13 12 9 7 6 7 5 3 1 1 1 1 0 0 0
0 0 0 0 0 0 0 0 0 0 0 0 0 2 7 10 11 12 13 15 19 21 23 23 20 18 17 15 13 11 9 6 5 5 5 3 1 0 0 0 0 0 0 0
0 0 0 0 0 0 0 0 0 0 0 0 0 3 9 11 10 10 11 12 14 16 19 19 17 14 14 13 11 9 6 4 3 2 2 1 0 0 0 0 0 0 0 0
0 0 0 0 0 0 0 0 0 0 0 0 0 3 8 10 7 7 10 10 9 10 13 15 13 11 11 11 8 5 3 1 1 1 0 0 0 0 0 0 0 0 0 0
0 0 0 0 0 0 0 0 0 0 0 0 0 2 6 7 6 7 10 9 8 8 10 11 10 10 9 8 5 3 1 0 0 0 0 0 0 0 0 0 0 0 0 0
0 0 0 0 0 0 0 0 0 0 0 0 0 1 4 5 7 10 10 9 8 9 9 9 8 7 7 5 3 2 1 0 0 0 0 0 0 0 0 0 0 0 0 0
0 0 0 0 0 0 0 0 0 0 0 0 0 1 2 5 8 10 9 8 7 6 6 6 6 4 4 3 3 2 1 0 0 0 0 0 0 0 0 0 0 0 0 0
0 0 1 0 0 0 0 0 0 0 0 0 1 1 3 5 7 9 8 7 6 4 3 5 4 2 1 2 1 1 0 0 0 0 0 0 0 0 0 0 0 0 0 0
0 0 0 0 0 0 0 0 0 0 0 0 0 1 3 4 5 7 7 6 6 4 2 3 2 1 0 0 0 0 0 0 0 0 0 0 0 0 0 0 0 0 0 0
0 0 0 0 0 0 0 0 0 0 0 0 1 1 3 3 4 6 7 7 6 4 1 1 1 0 0 0 0 0 0 0 0 0 0 0 0 0 0 0 0 0 0 0
0 0 0 0 0 0 0 0 1 1 1 1 2 2 3 4 5 5 6 6 4 2 0 0 0 0 0 0 0 0 0 0 0 0 0 0 0 0 0 0 0 0 0 0
0 0 0 0 0 0 0 1 2 3 3 2 2 2 3 3 3 3 3 2 1 0 0 0 1 0 0 0 0 0 0 0 0 0 0 0 0 0 0 0 0 0 0 0
0 0 0 0 0 0 0 1 2 3 3 2 1 1 1 1 1 1 0 0 0 0 0 0 1 0 0 0 0 0 0 0 0 0 0 0 0 0 0 0 0 0 0 0
0 0 0 0 0 0 0 1 1 1 2 1 0 0 0 0 0 0 0 0 0 0 0 0 1 1 0 0 0 0 0 0 0 0 0 0 0 0 0 0 0 0 0 0
1 1 0 0 1 1 1 1 1 0 1 1 0 0 0 1 1 1 0 0 0 0 0 0 1 1 0 0 0 0 0 0 0 0 0 0 0 0 0 0 0 0 0 0
0 1 0 1 2 2 2 2 1 0 0 0 0 0 0 1 2 1 0 0 0 0 0 0 0 1 0 0 0 0 0 0 0 0 0 0 0 0 0 0 0 0 0 0
Wind_Speed
12 12 11 12 14 12 9 9 9 11 10 9 9 12 13 14 13 13 12 11 10 10 11 10 9 9 7 7 6 6 6 5 3 3 2 2 2 2 2 3 3 3 3 3
10 13 13 10 9 9 9 9 9 8 9 8 8 12 13 13 13 13 13 12 11 11 11 10 9 8 8 7 6 6 5 5 4 3 2 2 2 2 2 2 2 3 3 3
11 7 8 6 7 8 9 9 8 7 9 8 6 9 12 12 11 11 11 11 11 12 11 11 9 9 8 7 6 6 5 5 5 3 2 2 2 1 2 2 2 3 3 3
9 4 4 6 8 9 9 8 7 7 8 7 8 8 9 11 10 10 10 11 11 12 11 10 10 9 8 7 7 6 5 5 4 3 3 3 3 3 2 2 2 2 3 3
6 5 6 8 9 7 7 6 7 8 9 8 7 7 5 8 10 10 11 12 12 11 11 11 10 10 8 7 7 6 6 5 4 4 4 4 4 3 2 2 2 2 2 3
7 4 5 5 5 4 6 7 7 7 8 10 8 7 6 8 11 10 10 10 11 12 10 10 10 9 8 7 7 6 5 4 4 4 5 5 4 3 4 3 3 2 2 3
6 6 5 4 6 6 7 5 3 5 6 8 7 5 2 5 8 9 11 11 10 11 10 9 10 9 7 7 6 6 5 5 5 5 5 4 3 2 3 4 3 3 3 4
5 6 6 6 6 5 6 6 5 6 6 6 5 2 2 6 8 10 12 13 11 11 10 10 9 8 7 7 6 6 5 4 4 4 4 4 3 3 3 4 3 3 3 3
4 5 7 7 6 7 6 5 6 7 7 6 4 2 3 7 10 12 13 13 11 10 10 9 8 8 7 7 5 6 5 4 4 4 3 3 4 4 4 3 3 3 3 3
4 5 7 6 6 7 6 4 3 5 5 6 5 4 3 5 6 9 11 12 12 11 10 9 8 7 7 6 6 5 5 4 4 3 3 4 3 3 4 4 4 4 4 4
4 5 6 5 5 5 6 6 5 6 6 6 4 2 4 6 7 8 9 10 11 11 10 9 8 7 7 6 6 5 5 4 4 4 4 4 3 3 4 4 4 4 3 3
3 4 5 6 4 4 6 6 5 5 6 6 4 2 4 6 8 8 9 10 10 11 9 9 8 7 6 6 6 5 4 4 4 4 4 4 4 4 4 4 3 3 3 3
5 3 4 5 2 4 6 6 5 4 5 5 5 2 6 8 8 8 9 10 9 9 9 8 8 6 5 5 5 5 4 4 4 4 5 4 4 4 4 3 3 2 2 3
3 4 4 5 5 5 7 6 5 4 4 4 3 3 6 8 8 7 8 9 9 8 8 7 7 6 5 5 5 5 4 4 4 5 5 4 3 3 3 3 3 3 3 3
3 5 4 6 7 6 7 7 5 3 3 3 0 3 6 7 8 8 9 10 9 8 8 7 7 6 6 5 5 5 5 4 4 4 4 4 2 2 3 3 3 4 4 5
1 5 6 6 6 5 5 5 4 4 3 1 3 5 7 9 8 8 8 9 9 8 8 8 7 6 6 6 5 5 4 4 4 3 3 3 2 2 2 2 3 3 4 4
3 4 6 7 5 4 4 3 2 2 4 4 3 5 8 8 8 7 7 8 8 8 8 8 7 6 5 4 4 5 4 4 4 3 3 3 2 2 2 3 4 3 4 4
3 4 4 6 6 5 0 3 3 2 4 5 6 8 7 7 8 7 6 6 8 8 8 8 7 6 5 5 4 4 4 4 4 3 3 2 2 2 2 3 3 3 3 3
3 4 5 5 3 2 1 1 2 2 4 5 6 7 8 9 8 7 6 6 7 8 7 7 7 7 6 5 5 4 4 4 3 3 3 2 2 2 2 2 2 2 2 2
5 4 5 5 3 2 1 3 3 2 3 5 5 6 7 7 4 5 7 8 8 9 8 8 8 7 6 5 5 5 4 4 3 3 3 2 1 1 1 2 1 1 1 1
4 5 6 5 2 1 3 3 2 1 3 4 5 5 5 4 4 9 10 10 9 9 9 8 8 7 6 6 5 4 4 4 3 3 2 2 1 1 1 1 1 1 1 1
2 3 3 3 2 1 5 3 5 5 4 5 6 7 9 10 12 12 11 10 10 10 9 8 7 7 6 6 6 5 4 4 3 3 3 2 1 0 2 1 1 1 1 1
0 1 2 2 4 5 6 7 7 5 5 5 6 9 10 11 11 11 11 10 10 9 9 7 8 7 6 6 5 5 4 4 4 3 2 1 1 0 1 0 1 1 1 2
3 2 2 3 6 6 6 6 6 6 5 6 8 9 10 11 11 11 10 10 9 9 8 7 8 8 7 6 6 5 5 4 3 3 2 2 1 1 1 1 1 1 1 2
1 2 2 4 5 5 6 6 7 6 7 7 8 9 10 11 11 11 10 9 8 8 7 7 6 7 7 6 5 5 5 4 3 3 2 2 2 1 1 1 1 2 3 2
1 1 1 3 4 4 6 7 7 7 7 7 8 9 10 10 11 10 9 8 8 8 7 6 7 7 7 7 6 5 5 4 3 3 3 3 3 2 3 3 2 1 1 2
Wind_Direction
208 227 230 220 217 236 239 224 213 201 185 197 190 158 169 173 170 163 157 154 150 142 129 124 119 116 107 93 86 74 65 52 47 48 53 70 71 70 70 69 50 38 18 355
212 226 235 232 221 245 255 236 218 186 175 197 182 164 177 178 179 171 164 158 157 145 135 134 128 120 109 98 89 82 69 56 53 55 47 61 68 70 71 58 48 24 12 360
227 221 212 230 218 237 252 241 224 195 177 202 199 188 181 178 181 175 166 159 153 148 145 139 132 124 116 105 92 82 69 57 50 48 62 69 80 61 47 40 51 25 15 22
229 216 196 223 236 227 244 242 232 224 218 211 207 224 195 180 183 176 169 164 157 150 146 144 135 124 118 114 103 88 76 62 50 44 50 53 61 49 33 29 42 25 22 24
229 194 206 227 240 235 255 275 250 241 242 245 227 238 216 178 187 190 180 172 157 151 145 140 132 126 121 114 105 96 86 72 56 51 53 46 50 41 32 31 37 33 37 31
255 221 223 243 257 256 272 272 272 264 253 249 245 233 215 190 195 188 177 159 150 142 138 130 126 123 119 113 107 101 94 82 69 59 56 54 52 41 29 26 27 30 46 35
253 226 217 241 251 232 246 256 270 273 263 268 292 259 188 178 174 168 157 146 146 142 139 132 128 126 120 112 104 101 95 84 72 67 61 55 42 46 42 20 26 31 39 37
262 244 227 214 244 261 253 246 242 254 268 285 310 312 91 119 125 131 138 138 139 143 137 132 130 128 123 115 110 105 97 86 76 72 59 52 32 35 41 29 23 34 31 34
287 250 243 236 239 254 252 258 256 266 265 264 241 180 115 102 112 123 132 136 140 139 134 134 132 131 131 125 116 111 109 97 85 80 70 62 48 40 38 34 36 39 31 28
249 263 240 228 239 249 266 277 286 272 273 272 255 176 152 141 137 133 137 139 140 137 136 134 128 127 124 122 114 112 112 104 99 88 68 71 54 49 44 43 48 42 32 26
263 267 269 251 250 268 267 269 280 285 294 300 301 68 130 156 146 143 140 136 140 139 139 133 127 126 127 126 125 125 121 117 106 93 78 68 54 49 52 53 49 40 26 19
302 299 292 280 292 302 280 286 295 298 305 313 318 80 97 121 129 134 132 126 126 130 130 130 130 129 133 133 131 126 122 115 106 97 85 69 57 51 54 54 43 39 27 19
342 314 285 282 319 327 295 290 294 298 301 310 312 100 108 115 115 122 126 123 122 124 128 132 132 132 134 132 126 124 121 111 103 94 90 75 59 57 57 53 39 39 37 25
308 290 295 294 291 285 285 294 306 307 298 318 343 130 138 123 118 122 127 130 130 131 132 138 137 138 139 131 131 129 118 112 108 99 98 89 74 62 55 48 36 34 33 30
287 277 264 257 267 272 288 302 314 318 312 311 339 136 140 133 133 134 133 134 134 135 136 139 139 140 136 130 126 124 117 109 102 104 105 100 90 73 63 50 39 31 19 30
174 291 292 271 254 266 293 311 321 335 344 5 89 97 112 122 124 129 136 142 144 146 148 143 140 140 136 134 135 126 120 113 108 108 110 105 88 69 69 69 51 40 26 22
204 247 277 281 274 276 291 326 336 360 5 359 40 111 130 134 134 140 146 154 157 155 150 146 143 136 128 124 130 131 123 120 121 120 111 112 109 85 58 55 54 38 31 28
277 279 280 277 277 272 38 30 56 45 48 60 92 116 129 127 125 128 138 146 150 149 142 140 137 132 124 122 126 126 128 126 127 123 108 100 97 84 62 54 49 37 34 28
220 270 285 284 275 269 153 11 30 60 52 70 103 113 115 120 123 125 134 137 138 136 132 129 130 130 129 132 135 137 131 133 133 122 113 102 81 72 63 57 44 33 27 13
200 218 253 270 291 292 8 29 54 104 109 78 100 121 133 150 159 146 141 133 130 127 127 129 133 132 135 137 141 141 140 139 129 117 109 101 89 87 72 61 30 359 357 360
220 222 246 265 269 79 9 4 346 299 88 85 99 116 131 135 115 130 137 132 130 128 132 135 136 138 142 144 146 145 139 131 122 109 104 103 89 123 111 74 354 302 335 28
239 264 268 285 273 51 16 38 57 83 92 94 105 108 106 107 115 127 131 130 133 135 139 141 138 138 143 146 144 143 136 130 126 120 114 111 107 315 113 99 300 290 278 243
126 3 14 39 80 86 61 74 90 102 101 104 113 115 119 124 131 133 133 135 140 141 142 144 142 141 146 148 148 145 143 142 139 126 118 135 158 77 59 163 252 258 258 261
162 163 139 119 122 115 101 97 95 96 102 106 111 120 128 130 132 134 137 140 142 142 144 148 147 143 144 148 151 150 151 154 151 147 155 175 177 175 156 305 304 326 351 350
85 144 147 140 137 126 114 105 106 107 108 111 117 124 129 132 136 137 140 143 145 145 147 152 152 149 147 150 154 157 157 160 161 169 182 193 194 198 153 122 10 12 37 42
8 101 168 132 128 126 121 124 126 124 123 126 127 126 130 135 138 138 139 143 145 147 150 154 157 156 155 160 160 164 165 167 175 188 202 209 207 200 206 185 175 174 192 167